Flag for U.S.A. Weather past 2 weeks in Salt Lake City, Utah, U.S.A.

Now
48 °F

Broken clouds.


Feels Like: 47 °F
Forecast: 27 / 46 °F
Wind: 3 mph from North

Location: Salt Lake City International Airport

Current Time: Feb 1, 2015 at 3:03:00 PM

Latest Report: Feb 1, 2015 at 1:53 PM


Visibility: 10 mi

Pressure: 30.19 "Hg

Humidity: 39%

Dew point: 24 °F

Location of Salt Lake CityLocation

Historic Weather in Salt Lake City — Graph

°F

Salt Lake City temperature yesterday

Maximum temperature yesterday: 46 °F (at 1:53 PM)
Minimum temperature yesterday: 31 °F (at 11:53 PM)
Average temperature yesterday: 39 °F

Past Weeks' High & Low Weather Summary

 TemperatureHumidityPressure
High57 °F (Jan 27, 2:53 PM)96% (Jan 27, 3:53 AM)30.59 "Hg (Jan 27, 3:53 AM)
Low21 °F (Jan 22, 4:53 AM)36% (Jan 22, 1:53 PM)29.94 "Hg (Jan 31, 1:53 AM)
Average37 °F74%30.30 "Hg
* Reported Jan 17 12:53 PM — Feb 1 12:53 PM, Salt Lake City, Weather by CustomWeather, © 2014

Note: Actual official high and low records may vary slightly from our data, if they occured in-between our weather recording intervals... More about our weather records

Advertising

Salt Lake City weather history for previous 24 hours

 ConditionsComfort  
Time TempWeatherWind HumidityBarometerVisibility
12:53 PM
Feb 1
47 °FPassing clouds.N/A46%30.21 "Hg10 mi
11:53 AM44 °FPassing clouds.7 mph53%30.24 "Hg10 mi
10:53 AM40 °FScattered clouds.No wind63%30.25 "Hg10 mi
9:53 AM36 °FPassing clouds.7 mph75%30.24 "Hg10 mi
8:53 AM32 °FPassing clouds.7 mph85%30.26 "Hg10 mi
7:53 AM28 °FPassing clouds.6 mph85%30.24 "Hg10 mi
6:53 AM28 °FPassing clouds.7 mph85%30.24 "Hg10 mi
5:53 AM29 °FPassing clouds.5 mph82%30.22 "Hg10 mi
4:53 AM28 °FClear.6 mph85%30.19 "Hg10 mi
3:53 AM28 °FClear.6 mph85%30.20 "Hg10 mi
2:53 AM29 °FClear.No wind89%30.19 "Hg10 mi
1:53 AM30 °FClear.No wind89%30.19 "Hg10 mi
12:53 AM31 °FClear.7 mph89%30.18 "Hg10 mi
11:53 PM
Jan 31
31 °FClear.6 mph89%30.17 "Hg10 mi
10:53 PM32 °FClear.6 mph85%30.16 "Hg10 mi
9:53 PM35 °FClear.5 mph82%30.15 "Hg10 mi
8:53 PM36 °FClear.3 mph75%30.13 "Hg10 mi
7:53 PM38 °FClear.6 mph70%30.13 "Hg10 mi
6:53 PM39 °FClear.7 mph70%30.11 "Hg10 mi
5:53 PM41 °FClear.8 mph62%30.09 "Hg10 mi
4:53 PM44 °FSunny.12 mph55%30.05 "Hg10 mi
3:53 PM45 °FPassing clouds.12 mph51%30.04 "Hg10 mi
Weather by CustomWeather, © 2014

See weather overviewHow to use our weather pages